Location: Most
(50.5133°N, 13.6207°E)
Time: 09:37:26
(UTC+02:00)

ISS - Pass Details

Date: 19 July 2018
Orbit: 402 x 408 km, 51.6° (Epoch: 17 July)

Event Time Altitude Azimuth Distance (km) Brightness Sun altitude
Exits shadow 01:30:34 - 268° (W) 1,913 -0.5 -18.5°
Reaches altitude 10° 01:31:39 10° 269° (W) 1,466 -1.1 -18.5°
Maximum altitude 01:34:56 72° 354° (N) 432 -3.6 -18.4°
Drops below altitude 10° 01:38:14 10° 81° (E) 1,470 -0.8 -18.4°
Sets 01:40:19 0° 83° (E) 2,332 0.2 -18.3°
